Location: Puketoi
(40.5833°S, 176.0167°E)
Time: 22:52:15
(UTC+00:00)

COSMOS 2455 - Pass Details

Date: 27 September 2023
Orbit: 902 x 907 km, 67.1° (Epoch: 03 December)

Event Time Altitude Azimuth Distance (km) Brightness Sun altitude
Exits shadow 12:43:51 13° 179° (S) 2,379 5.5 -46.9°
Drops below altitude 10° 12:44:44 10° 173° (S) 2,616 5.8 -46.9°
Sets 12:47:48 0° 159° (SSE) 3,562 6.7 -46.7°
